SCP
0 0 0 0 0 0 0 0 0 0 0 0 0 0 0 0 0 0 0 0 0 0 0 0 0 0 0 0 0 0 0 0 0 0 0 0 0 0 0 0 0 0 0 0 0
0 0 0 0 0 0 0 0 0 0 0 0 0 0 0 0 0 0 0 0 0 0 0 0 0 0 0 0 0 0 0 0 0 0 0 0 0 0 0 0 0 0 0 0 0
0 0 0 0 0 0 0 0 0 0 0 0 0 0 0 0 0 0 0 0 0 0 0 0 0 0 0 0 0 0 0 0 0 0 0 0 0 0 0 0 0 0 0 0 0
0 0 0 0 0 0 0 0 0 0 0 0 0 0 0 0 0 0 0 0 0 0 0 0 0 0 0 0 0 0 0 0 0 0 0 0 0 0 0 0 0 0 0 0 0
0 0 0 0 0 0 0 0 0 0 0 0 0 0 0 0 0 0 0 0 0 0 0 0 0 0 0 0 0 0 0 0 0 0 0 0 0 0 0 0 0 0 0 0 0
0 0 0 0 0 0 0 0 0 0 0 0 0 0 0 0 0 0 0 0 0 0 0 0 0 0 0 0 0 0 0 0 0 0 0 0 0 0 0 0 0 0 0 0 0
0 0 0 0 0 0 0 0 0 0 0 0 0 0 0 0 0 0 0 0 0 0 0 0 0 0 0 0 0 0 0 0 0 0 0 0 0 0 0 0 0 0 0 0 0
0 0 0 0 0 0 0 0 0 0 0 0 0 0 0 0 0 0 0 0 0 0 0 0 0 0 0 0 0 0 0 0 0 0 0 0 0 0 0 0 0 0 0 0 0
0 0 0 0 0 0 0 0 0 0 0 0 0 0 0 0 0 0 0 0 0 0 0 0 0 0 0 0 0 0 0 0 0 0 0 0 0 0 0 0 0 0 0 0 0
0 0 0 0 0 0 0 0 0 0 0 0 0 0 0 0 0 0 0 0 0 0 0 0 0 0 0 0 0 0 0 0 0 0 0 0 0 0 0 0 0 0 0 0 0
0 0 0 0 0 0 0 0 0 0 0 0 0 0 0 0 0 0 0 0 0 0 0 0 0 0 0 0 0 0 0 0 0 0 0 0 0 0 0 0 0 0 0 0 0
0 0 0 0 0 0 0 0 0 0 -0 0 0 0 0 0 0 0 0 0 0 0 0 0 0 0 0 0 0 0 0 0 0 0 0 -0 -0 -0 0 0 0 0 0 0 0
0 0 0 0 0 0 0 0 0 0 -0 -0 0 0 0 0 0 0 0 0 0 0 0 0 0 0 0 0 0 0 0 0 0 0 0 0 -0 -0 -0 -0 0 0 0 0 0
0 0 0 0 0 0 0 0 0 0 0 0 0 0 0 0 0 0 0 0 0 0 0 0 0 0 0 0 0 0 0 0 0 0 0 0 -0 -0 -0 -0 0 0 0 0 0
0 0 0 0 0 0 0 0 0 0 0 0 0 0 0 0 0 0 0 0 0 0 0 0 0 0 0 0 0 0 0 0 0 0 0 0 0 -0 -0 -0 0 0 0 0 0
0 0 0 0 0 0 0 0 0 0 0 0 0 0 0 0 0 0 0 0 0 0 0 0 0 0 0 0 0 0 0 0 0 0 0 0 0 -0 0 0 0 0 0 0 0
0 0 0 0 0 0 0 0 0 0 0 0 0 0 0 0 0 0 0 0 0 0 0 0 0 0 0 0 0 0 0 0 0 0 0 0 0 0 0 0 0 0 0 0 0
0 0 0 0 0 0 0 0 0 0 0 0 0 0 0 0 0 0 0 0 0 0 0 0 0 0 0 0 0 0 0 0 0 0 0 0 0 0 0 0 -0 0 0 0 0
0 0 0 0 0 0 0 0 0 0 0 0 0 0 0 0 0 0 0 0 0 0 0 0 0 0 0 0 0 0 0 0 0 0 0 0 0 0 0 0 0 0 0 0 0
0 0 0 -0 -0 0 0 0 0 0 0 0 0 0 0 0 0 0 0 0 0 0 0 0 0 0 0 0 0 0 0 0 0 0 0 0 0 0 0 0 0 0 0 0 0
-0 -0 0 0 -0 0 0 0 0 0 0 0 0 0 0 0 0 0 0 0 0 0 0 0 0 0 0 0 0 0 0 0 0 0 0 0 0 0 0 0 0 0 0 0 0
-0 0 -0 -0 0 0 0 0 0 0 0 0 0 0 0 0 0 0 0 0 0 0 0 0 0 0 0 0 0 0 0 0 0 0 0 0 0 0 0 0 0 0 0 0 0
0 -0 -0 0 0 0 0 0 0 0 0 0 0 0 0 0 0 0 0 0 0 0 0 0 0 0 0 0 0 0 0 0 0 0 0 0 0 0 0 0 0 0 0 0 0
0 0 -0 -0 0 0 0 0 -0 -0 0 0 0 0 0 0 0 0 0 0 0 -0 0 0 0 0 0 0 0 0 0 0 0 0 0 0 0 0 0 0 0 0 0 0 0
0 0 0 -0 0 0 0 0 0 -0 -0 -0 0 0 0 0 0 0 0 0 0 0 0 0 0 0 0 0 0 0 0 0 0 0 0 0 0 0 0 0 0 0 0 0 0
0 0 0 0 0 -0 0 0 0 -0 -0 0 0 0 0 0 0 0 0 0 0 0 0 0 0 0 0 0 0 0 0 0 0 0 0 0 0 0 0 0 0 0 0 0 -0
0 0 0 0 0 0 0 0 0 -0 -0 -0 0 0 0 0 0 0 0 0 0 0 0 0 0 0 0 0 0 0 0 0 0 0 0 0 0 0 0 0 0 0 0 -0 -0
Wind_Speed_500mb
16 18 20 22 23 24 26 26 27 27 28 30 31 30 33 35 36 39 41 38 27 27 19 18 18 19 17 17 24 14 3 13 13 17 13 5 8 17 16 18 30 31 21 17 30
18 19 21 23 26 29 29 31 30 30 31 30 33 32 31 35 39 45 42 36 29 29 23 15 13 13 9 11 18 12 9 15 10 8 7 9 9 10 8 14 19 28 36 29 39
22 23 23 24 26 30 33 33 33 33 33 33 32 33 31 30 38 13 10 21 29 28 27 15 14 14 9 13 16 13 11 8 6 9 9 8 9 8 10 12 23 52 58 42 52
23 25 27 30 34 34 31 33 37 35 34 32 32 33 30 24 11 7 5 2 12 21 21 17 19 11 7 11 23 7 22 20 10 11 8 7 11 10 28 27 12 37 47 50 59
27 28 30 33 37 38 36 34 32 36 36 33 32 30 29 19 27 31 23 20 18 18 24 22 24 10 7 10 11 13 12 21 24 23 24 22 24 23 34 46 50 41 37 56 67
33 33 34 37 41 45 37 39 37 36 35 35 32 28 25 12 24 24 21 20 19 19 25 29 15 21 12 11 10 12 10 10 19 31 20 13 9 5 42 56 62 53 51 57 70
33 35 37 40 42 46 42 42 42 42 34 33 31 28 30 48 34 27 21 19 20 22 26 28 27 15 4 9 11 7 10 13 15 15 12 11 18 28 71 50 53 71 59 62 71
39 38 39 42 44 44 44 46 48 40 32 27 24 24 22 27 30 28 31 29 23 23 27 23 23 17 10 8 6 6 2 7 2 10 6 15 23 12 12 41 72 65 72 74 75
46 45 43 44 47 46 45 48 46 35 24 19 18 16 18 21 22 28 28 20 18 16 20 19 14 12 4 4 8 5 10 12 14 16 5 12 19 6 13 16 32 46 69 75 84
49 46 46 46 48 47 43 45 38 28 17 12 17 10 27 16 15 15 22 21 12 12 12 13 10 4 2 8 17 12 11 11 12 11 9 11 36 28 37 28 46 56 53 60 83
54 51 48 45 44 44 44 40 16 12 13 20 27 35 31 27 17 18 22 22 14 9 10 6 7 18 42 12 4 2 8 10 7 6 9 19 27 50 24 25 36 59 67 77 80
59 59 58 45 40 41 32 23 17 23 30 46 56 68 64 31 17 31 30 25 17 14 10 2 20 22 2 12 15 11 11 16 12 3 9 18 34 42 28 23 58 62 68 82 81
58 61 64 60 42 47 24 28 31 34 12 33 44 36 44 45 23 31 44 25 11 15 17 17 10 7 17 9 12 11 15 8 12 5 10 14 26 20 10 18 45 61 73 72 77
53 54 55 66 41 24 31 24 36 34 6 14 13 14 22 21 13 31 48 20 9 25 14 15 10 12 9 11 16 12 12 8 5 4 9 4 18 15 15 22 14 36 50 56 66
55 55 54 43 38 29 34 35 36 18 12 4 7 12 19 16 14 12 37 12 14 15 15 14 15 11 9 14 18 10 5 7 4 3 9 4 6 14 7 18 19 18 25 41 58
56 53 51 55 35 25 33 29 30 3 22 9 8 7 7 6 5 12 12 11 6 9 3 9 2 8 12 5 5 13 11 12 8 5 7 15 14 31 12 14 7 7 13 13 16
60 56 53 54 59 20 13 15 8 16 5 11 10 12 8 12 9 11 11 14 14 10 14 4 9 6 7 10 5 6 14 2 7 4 14 1 9 18 19 24 11 14 26 26 18
62 58 61 56 57 31 24 14 25 21 30 3 9 8 16 18 10 15 13 9 15 4 7 14 10 21 14 14 15 14 15 13 16 10 9 6 17 14 18 17 24 28 44 41 20
73 71 52 56 30 21 24 27 25 36 16 15 5 8 9 10 13 10 19 12 18 26 20 12 11 2 3 4 8 13 12 5 12 5 6 10 16 18 28 25 12 20 16 18 15
70 67 52 36 27 25 20 55 28 19 4 7 27 21 22 12 16 18 23 11 12 33 3 12 2 3 2 1 3 8 8 6 5 6 9 11 12 15 17 15 11 15 17 23 18
60 28 33 28 36 24 22 29 17 69 52 4 18 10 11 9 14 11 16 9 15 9 8 6 7 2 4 16 22 8 7 2 6 8 11 3 13 15 17 14 15 13 14 20 19
31 8 26 54 21 14 11 14 15 37 39 14 15 44 24 27 11 10 18 15 20 19 19 12 5 9 16 3 3 4 11 14 9 12 8 4 19 7 12 12 10 6 10 10 16
39 32 37 26 7 14 15 24 27 35 34 12 14 12 28 47 26 30 22 9 34 20 16 14 4 2 3 3 6 8 11 9 5 5 15 14 14 2 6 2 5 9 16 19 14
21 7 13 27 20 11 23 35 16 40 26 29 23 9 28 38 21 31 10 6 7 12 31 23 13 22 22 13 8 11 12 17 7 4 24 22 22 2 4 6 6 4 16 31 18
7 8 9 7 15 13 11 19 34 19 12 39 10 26 15 10 17 23 16 20 4 8 6 10 15 28 42 19 7 11 10 20 27 47 16 49 31 13 16 0 2 6 26 22 21
14 9 9 19 27 12 9 9 27 23 10 22 13 36 26 13 18 11 21 14 14 7 15 7 9 16 26 39 46 33 24 23 44 49 38 57 41 18 15 20 12 27 36 38 39
33 40 33 25 6 4 9 10 16 11 10 8 16 25 33 24 52 56 42 39 34 14 5 8 11 18 40 31 24 22 43 43 13 16 29 31 43 12 22 13 24 38 41 45 53
Wind_Direction_500mb
345 338 334 331 326 319 311 306 307 306 304 302 305 303 300 295 292 286 275 273 266 253 265 272 267 250 228 214 198 190 170 234 228 171 249 226 218 233 221 203 195 200 215 216 192
352 345 338 332 325 318 313 312 310 307 305 303 305 305 302 301 301 287 278 264 251 246 275 277 257 232 199 202 199 171 183 236 203 199 238 285 247 258 211 203 214 212 217 219 197
354 350 347 338 332 323 317 312 307 305 304 302 302 300 298 305 309 282 311 249 233 244 272 246 219 205 230 196 203 194 218 209 252 238 259 262 283 244 214 238 218 216 217 208 197
3 354 351 349 343 334 322 313 308 304 301 298 297 295 291 298 284 277 292 271 230 236 238 219 197 181 244 211 198 202 238 237 232 242 250 230 282 262 221 236 248 238 242 215 204
3 357 352 349 349 342 334 323 309 302 298 296 293 288 286 270 257 269 267 272 259 239 212 204 194 188 238 244 202 206 222 230 239 243 245 258 246 247 258 255 252 258 239 227 217
356 353 350 347 346 345 338 334 322 307 295 291 286 278 266 244 265 262 262 263 255 225 211 202 224 202 268 253 236 315 260 252 244 244 239 216 248 218 258 257 251 250 238 228 226
344 343 342 341 341 343 334 331 327 312 292 280 275 271 263 263 268 263 258 253 248 234 219 219 225 222 221 281 294 311 319 303 237 222 234 204 283 228 252 243 241 234 228 230 229
335 335 334 333 332 335 334 330 328 316 292 278 262 259 255 263 258 257 254 254 248 236 228 226 231 234 231 295 307 302 338 292 323 137 234 161 270 238 236 223 234 240 234 232 231
323 327 327 328 327 327 329 329 326 317 302 273 261 248 261 266 257 249 245 237 236 232 217 220 208 217 184 145 323 240 247 216 306 190 143 197 266 273 237 219 240 245 242 240 241
313 314 315 319 323 323 324 327 320 308 291 270 244 275 244 244 243 233 224 220 208 194 166 175 188 165 74 153 225 203 228 242 226 200 195 238 261 267 267 270 269 268 257 249 243
308 307 309 310 318 323 324 334 324 298 273 249 277 252 271 242 222 223 206 196 187 183 186 191 160 202 217 221 295 287 225 249 274 208 205 233 250 269 254 261 260 259 260 254 247
300 304 305 302 314 323 323 325 317 299 297 276 265 256 247 235 224 209 191 175 172 197 138 84 236 223 196 202 227 259 272 264 269 178 197 274 259 263 256 235 244 244 246 248 251
305 297 291 292 304 313 306 316 321 325 258 284 244 242 238 224 225 211 191 188 168 163 198 186 201 131 189 195 188 222 221 236 246 297 228 304 278 263 256 241 248 249 246 249 249
328 324 317 297 304 285 309 312 322 334 352 253 218 225 187 171 234 210 194 175 198 194 175 234 231 177 166 203 168 245 208 212 242 24 255 7 286 284 270 261 265 265 253 253 250
328 329 330 340 310 304 297 300 313 328 284 234 185 172 175 186 141 182 189 191 180 178 136 235 172 174 175 195 164 225 92 123 83 133 345 197 280 257 251 280 259 265 259 255 249
323 325 325 318 309 278 289 286 304 318 246 286 132 167 140 226 207 135 171 185 158 137 219 243 242 191 200 98 132 143 80 47 55 82 293 184 179 266 215 228 256 274 277 308 257
315 317 314 309 303 284 275 279 225 222 337 258 201 170 200 191 199 175 174 183 168 123 218 171 210 179 153 97 28 110 106 315 347 4 233 74 195 273 287 264 242 269 264 314 287
310 306 300 311 312 292 251 221 229 223 222 99 153 137 188 159 223 179 154 208 245 109 120 162 282 165 181 195 173 195 170 164 199 201 248 131 237 250 243 285 275 274 276 282 264
323 312 305 326 298 229 202 220 216 234 190 163 85 181 273 231 174 155 193 210 206 182 184 155 266 94 44 152 141 181 213 174 103 63 36 222 280 287 262 266 268 265 283 266 262
326 325 318 316 309 205 215 227 228 247 325 121 219 192 203 211 178 192 172 203 224 195 143 212 85 20 118 104 71 155 170 97 347 170 236 264 266 233 289 267 284 260 258 264 254
334 329 323 302 307 210 231 233 262 265 283 277 253 276 237 206 205 213 212 223 192 152 114 131 130 9 71 211 178 153 190 175 138 172 178 254 256 217 239 247 260 281 288 276 274
339 304 330 304 320 292 266 258 259 284 290 290 275 263 276 264 212 233 225 237 154 146 161 196 122 183 198 230 332 272 209 167 145 225 243 169 251 193 224 275 194 275 13 353 291
320 310 324 313 266 292 288 282 296 317 273 282 265 268 269 260 271 235 228 257 171 171 172 179 223 276 264 358 4 209 198 225 143 94 207 156 258 43 223 156 167 136 71 31 357
321 305 324 319 297 273 299 299 322 329 304 333 277 273 262 272 267 256 266 275 266 217 207 168 164 185 225 233 132 188 206 198 160 143 236 228 229 73 125 245 313 66 53 357 341
292 280 287 300 308 300 328 309 305 330 8 357 301 6 5 305 272 271 284 236 276 299 273 162 213 205 230 211 202 194 172 184 206 234 203 250 241 237 269 256 3 323 321 339 344
237 220 252 264 275 280 275 254 298 311 346 319 356 350 349 334 313 322 348 316 232 7 179 187 244 185 236 233 241 234 218 219 208 227 247 266 275 272 311 306 333 321 352 5 9
312 273 229 252 219 196 241 237 268 280 278 297 339 339 330 335 323 304 289 273 272 288 287 197 219 211 238 236 234 238 222 221 189 211 212 238 251 285 274 331 23 15 20 13 350
Wind_Speed_850mb
16 18 20 22 23 24 26 26 27 27 28 30 31 30 33 35 36 39 41 38 27 27 19 18 18 19 17 17 24 14 3 13 13 17 13 5 8 17 16 18 30 31 21 17 30
18 19 21 23 26 29 29 31 30 30 31 30 33 32 31 35 39 45 42 36 29 29 23 15 13 13 9 11 18 12 9 15 10 8 7 9 9 10 8 14 19 28 36 29 39
22 23 23 24 26 30 33 33 33 33 33 33 32 33 31 30 38 13 10 21 29 28 27 15 14 14 9 13 16 13 11 8 6 9 9 8 9 8 10 12 23 52 58 42 52
23 25 27 30 34 34 31 33 37 35 34 32 32 33 30 24 11 7 5 2 12 21 21 17 19 11 7 11 23 7 22 20 10 11 8 7 11 10 28 27 12 37 47 50 59
27 28 30 33 37 38 36 34 32 36 36 33 32 30 29 19 27 31 23 20 18 18 24 22 24 10 7 10 11 13 12 21 24 23 24 22 24 23 34 46 50 41 37 56 67
33 33 34 37 41 45 37 39 37 36 35 35 32 28 25 12 24 24 21 20 19 19 25 29 15 21 12 11 10 12 10 10 19 31 20 13 9 5 42 56 62 53 51 57 70
33 35 37 40 42 46 42 42 42 42 34 33 31 28 30 48 34 27 21 19 20 22 26 28 27 15 4 9 11 7 10 13 15 15 12 11 18 28 71 50 53 71 59 62 71
39 38 39 42 44 44 44 46 48 40 32 27 24 24 22 27 30 28 31 29 23 23 27 23 23 17 10 8 6 6 2 7 2 10 6 15 23 12 12 41 72 65 72 74 75
46 45 43 44 47 46 45 48 46 35 24 19 18 16 18 21 22 28 28 20 18 16 20 19 14 12 4 4 8 5 10 12 14 16 5 12 19 6 13 16 32 46 69 75 84
49 46 46 46 48 47 43 45 38 28 17 12 17 10 27 16 15 15 22 21 12 12 12 13 10 4 2 8 17 12 11 11 12 11 9 11 36 28 37 28 46 56 53 60 83
54 51 48 45 44 44 44 40 16 12 13 20 27 35 31 27 17 18 22 22 14 9 10 6 7 18 42 12 4 2 8 10 7 6 9 19 27 50 24 25 36 59 67 77 80
59 59 58 45 40 41 32 23 17 23 30 46 56 68 64 31 17 31 30 25 17 14 10 2 20 22 2 12 15 11 11 16 12 3 9 18 34 42 28 23 58 62 68 82 81
58 61 64 60 42 47 24 28 31 34 12 33 44 36 44 45 23 31 44 25 11 15 17 17 10 7 17 9 12 11 15 8 12 5 10 14 26 20 10 18 45 61 73 72 77
53 54 55 66 41 24 31 24 36 34 6 14 13 14 22 21 13 31 48 20 9 25 14 15 10 12 9 11 16 12 12 8 5 4 9 4 18 15 15 22 14 36 50 56 66
55 55 54 43 38 29 34 35 36 18 12 4 7 12 19 16 14 12 37 12 14 15 15 14 15 11 9 14 18 10 5 7 4 3 9 4 6 14 7 18 19 18 25 41 58
56 53 51 55 35 25 33 29 30 3 22 9 8 7 7 6 5 12 12 11 6 9 3 9 2 8 12 5 5 13 11 12 8 5 7 15 14 31 12 14 7 7 13 13 16
60 56 53 54 59 20 13 15 8 16 5 11 10 12 8 12 9 11 11 14 14 10 14 4 9 6 7 10 5 6 14 2 7 4 14 1 9 18 19 24 11 14 26 26 18
62 58 61 56 57 31 24 14 25 21 30 3 9 8 16 18 10 15 13 9 15 4 7 14 10 21 14 14 15 14 15 13 16 10 9 6 17 14 18 17 24 28 44 41 20
73 71 52 56 30 21 24 27 25 36 16 15 5 8 9 10 13 10 19 12 18 26 20 12 11 2 3 4 8 13 12 5 12 5 6 10 16 18 28 25 12 20 16 18 15
70 67 52 36 27 25 20 55 28 19 4 7 27 21 22 12 16 18 23 11 12 33 3 12 2 3 2 1 3 8 8 6 5 6 9 11 12 15 17 15 11 15 17 23 18
60 28 33 28 36 24 22 29 17 69 52 4 18 10 11 9 14 11 16 9 15 9 8 6 7 2 4 16 22 8 7 2 6 8 11 3 13 15 17 14 15 13 14 20 19
31 8 26 54 21 14 11 14 15 37 39 14 15 44 24 27 11 10 18 15 20 19 19 12 5 9 16 3 3 4 11 14 9 12 8 4 19 7 12 12 10 6 10 10 16
39 32 37 26 7 14 15 24 27 35 34 12 14 12 28 47 26 30 22 9 34 20 16 14 4 2 3 3 6 8 11 9 5 5 15 14 14 2 6 2 5 9 16 19 14
21 7 13 27 20 11 23 35 16 40 26 29 23 9 28 38 21 31 10 6 7 12 31 23 13 22 22 13 8 11 12 17 7 4 24 22 22 2 4 6 6 4 16 31 18
7 8 9 7 15 13 11 19 34 19 12 39 10 26 15 10 17 23 16 20 4 8 6 10 15 28 42 19 7 11 10 20 27 47 16 49 31 13 16 0 2 6 26 22 21
14 9 9 19 27 12 9 9 27 23 10 22 13 36 26 13 18 11 21 14 14 7 15 7 9 16 26 39 46 33 24 23 44 49 38 57 41 18 15 20 12 27 36 38 39
33 40 33 25 6 4 9 10 16 11 10 8 16 25 33 24 52 56 42 39 34 14 5 8 11 18 40 31 24 22 43 43 13 16 29 31 43 12 22 13 24 38 41 45 53
Wind_Direction_850mb
345 338 334 331 326 319 311 306 307 306 304 302 305 303 300 295 292 286 275 273 266 253 265 272 267 250 228 214 198 190 170 234 228 171 249 226 218 233 221 203 195 200 215 216 192
352 345 338 332 325 318 313 312 310 307 305 303 305 305 302 301 301 287 278 264 251 246 275 277 257 232 199 202 199 171 183 236 203 199 238 285 247 258 211 203 214 212 217 219 197
354 350 347 338 332 323 317 312 307 305 304 302 302 300 298 305 309 282 311 249 233 244 272 246 219 205 230 196 203 194 218 209 252 238 259 262 283 244 214 238 218 216 217 208 197
3 354 351 349 343 334 322 313 308 304 301 298 297 295 291 298 284 277 292 271 230 236 238 219 197 181 244 211 198 202 238 237 232 242 250 230 282 262 221 236 248 238 242 215 204
3 357 352 349 349 342 334 323 309 302 298 296 293 288 286 270 257 269 267 272 259 239 212 204 194 188 238 244 202 206 222 230 239 243 245 258 246 247 258 255 252 258 239 227 217
356 353 350 347 346 345 338 334 322 307 295 291 286 278 266 244 265 262 262 263 255 225 211 202 224 202 268 253 236 315 260 252 244 244 239 216 248 218 258 257 251 250 238 228 226
344 343 342 341 341 343 334 331 327 312 292 280 275 271 263 263 268 263 258 253 248 234 219 219 225 222 221 281 294 311 319 303 237 222 234 204 283 228 252 243 241 234 228 230 229
335 335 334 333 332 335 334 330 328 316 292 278 262 259 255 263 258 257 254 254 248 236 228 226 231 234 231 295 307 302 338 292 323 137 234 161 270 238 236 223 234 240 234 232 231
323 327 327 328 327 327 329 329 326 317 302 273 261 248 261 266 257 249 245 237 236 232 217 220 208 217 184 145 323 240 247 216 306 190 143 197 266 273 237 219 240 245 242 240 241
313 314 315 319 323 323 324 327 320 308 291 270 244 275 244 244 243 233 224 220 208 194 166 175 188 165 74 153 225 203 228 242 226 200 195 238 261 267 267 270 269 268 257 249 243
308 307 309 310 318 323 324 334 324 298 273 249 277 252 271 242 222 223 206 196 187 183 186 191 160 202 217 221 295 287 225 249 274 208 205 233 250 269 254 261 260 259 260 254 247
300 304 305 302 314 323 323 325 317 299 297 276 265 256 247 235 224 209 191 175 172 197 138 84 236 223 196 202 227 259 272 264 269 178 197 274 259 263 256 235 244 244 246 248 251
305 297 291 292 304 313 306 316 321 325 258 284 244 242 238 224 225 211 191 188 168 163 198 186 201 131 189 195 188 222 221 236 246 297 228 304 278 263 256 241 248 249 246 249 249
328 324 317 297 304 285 309 312 322 334 352 253 218 225 187 171 234 210 194 175 198 194 175 234 231 177 166 203 168 245 208 212 242 24 255 7 286 284 270 261 265 265 253 253 250
328 329 330 340 310 304 297 300 313 328 284 234 185 172 175 186 141 182 189 191 180 178 136 235 172 174 175 195 164 225 92 123 83 133 345 197 280 257 251 280 259 265 259 255 249
323 325 325 318 309 278 289 286 304 318 246 286 132 167 140 226 207 135 171 185 158 137 219 243 242 191 200 98 132 143 80 47 55 82 293 184 179 266 215 228 256 274 277 308 257
315 317 314 309 303 284 275 279 225 222 337 258 201 170 200 191 199 175 174 183 168 123 218 171 210 179 153 97 28 110 106 315 347 4 233 74 195 273 287 264 242 269 264 314 287
310 306 300 311 312 292 251 221 229 223 222 99 153 137 188 159 223 179 154 208 245 109 120 162 282 165 181 195 173 195 170 164 199 201 248 131 237 250 243 285 275 274 276 282 264
323 312 305 326 298 229 202 220 216 234 190 163 85 181 273 231 174 155 193 210 206 182 184 155 266 94 44 152 141 181 213 174 103 63 36 222 280 287 262 266 268 265 283 266 262
326 325 318 316 309 205 215 227 228 247 325 121 219 192 203 211 178 192 172 203 224 195 143 212 85 20 118 104 71 155 170 97 347 170 236 264 266 233 289 267 284 260 258 264 254
334 329 323 302 307 210 231 233 262 265 283 277 253 276 237 206 205 213 212 223 192 152 114 131 130 9 71 211 178 153 190 175 138 172 178 254 256 217 239 247 260 281 288 276 274
339 304 330 304 320 292 266 258 259 284 290 290 275 263 276 264 212 233 225 237 154 146 161 196 122 183 198 230 332 272 209 167 145 225 243 169 251 193 224 275 194 275 13 353 291
320 310 324 313 266 292 288 282 296 317 273 282 265 268 269 260 271 235 228 257 171 171 172 179 223 276 264 358 4 209 198 225 143 94 207 156 258 43 223 156 167 136 71 31 357
321 305 324 319 297 273 299 299 322 329 304 333 277 273 262 272 267 256 266 275 266 217 207 168 164 185 225 233 132 188 206 198 160 143 236 228 229 73 125 245 313 66 53 357 341
292 280 287 300 308 300 328 309 305 330 8 357 301 6 5 305 272 271 284 236 276 299 273 162 213 205 230 211 202 194 172 184 206 234 203 250 241 237 269 256 3 323 321 339 344
237 220 252 264 275 280 275 254 298 311 346 319 356 350 349 334 313 322 348 316 232 7 179 187 244 185 236 233 241 234 218 219 208 227 247 266 275 272 311 306 333 321 352 5 9
312 273 229 252 219 196 241 237 268 280 278 297 339 339 330 335 323 304 289 273 272 288 287 197 219 211 238 236 234 238 222 221 189 211 212 238 251 285 274 331 23 15 20 13 350